Flag for France Weather past 2 weeks in Douai, France

Now
41 °F

Clear.


Feels Like: 35 °F
Forecast: 37 / 51 °F
Wind: 9 mph from West

Location: Lille Airport

Current Time: Mar 27, 2015 at 12:03:32 AM

Latest Report: Mar 26, 2015 at 11:30 PM


Visibility: N/A

Pressure: 29.89 "Hg

Humidity: 81%

Dew point: 36 °F

Location of DouaiLocation

Historic Weather in Douai — Graph

°F

Douai temperature yesterday

Maximum temperature yesterday: 48 °F (at 6:00 PM)
Minimum temperature yesterday: 30 °F (at 3:30 AM)
Average temperature yesterday: 39 °F

Past Weeks' High & Low Weather Summary

 TemperatureHumidityPressure
High63 °F (Mar 17, 3:30 PM)100% (Mar 15, 12:30 AM)30.42 "Hg (Mar 15, 12:30 AM)
Low30 °F (Mar 23, 3:00 AM)29% (Mar 12, 3:00 PM)29.65 "Hg (Mar 26, 1:30 PM)
Average43 °F80%30.15 "Hg
* Reported Mar 11 11:00 PM — Mar 26 11:00 PM, Douai, Weather by CustomWeather, © 2015

Note: Actual official high and low records may vary slightly from our data, if they occured in-between our weather recording intervals... More about our weather records

Advertising

Douai weather history for previous 24 hours

 ConditionsComfort  
Time TempWeatherWind HumidityBarometerVisibility
11:00 PM
Thu, Mar 26
41 °FClear.6 mph87%29.86 "Hg10 mi
10:00 PM41 °FClear.7 mph93%29.86 "Hg10 mi
9:30 PM43 °FClear.7 mph93%29.83 "Hg10 mi
9:00 PM41 °FClear.6 mph93%29.83 "Hg10 mi
8:30 PM43 °FClear.8 mph87%29.80 "Hg10 mi
8:00 PM45 °FClear.7 mph87%29.77 "Hg10 mi
7:30 PM46 °FClear.8 mph87%29.77 "Hg10 mi
7:00 PM46 °FBroken clouds.12 mph93%29.74 "HgN/A
6:30 PM46 °FLight rain. Partly sunny.5 mph100%29.71 "HgN/A
6:00 PM48 °FPartly sunny.6 mph87%29.71 "HgN/A
5:30 PM46 °FBroken clouds.8 mph93%29.68 "HgN/A
5:00 PM46 °FPartly sunny.13 mph93%29.68 "HgN/A
4:30 PM45 °FPartly sunny.14 mph100%29.65 "HgN/A
4:00 PM45 °FPartly sunny.17 mph93%29.65 "HgN/A
3:30 PM43 °FPartly sunny.14 mph100%29.65 "HgN/A
3:00 PM43 °FPartly sunny.15 mph100%29.65 "HgN/A
2:30 PM43 °FLight rain. Partly sunny.20 mph93%29.65 "Hg4 mi
2:00 PM43 °FLight rain. Partly sunny.18 mph93%29.65 "Hg2 mi
1:30 PM43 °FLight rain. Mostly cloudy.20 mph87%29.65 "Hg3 mi
1:00 PM43 °FLight rain. Mostly cloudy.23 mph87%29.68 "Hg4 mi
12:37 PM41 °FLight rain. More clouds than sun.23 mph87%29.68 "Hg4 mi
12:00 PM43 °FLight rain. More clouds than sun.20 mph81%29.68 "HgN/A
11:30 AM43 °FLight rain. Partly sunny.18 mph76%29.71 "HgN/A
11:00 AM43 °FLight rain. Partly sunny.17 mph76%29.71 "HgN/A
10:30 AM41 °FSunny.16 mph81%29.71 "Hg10 mi
9:30 AM39 °FSunny.15 mph87%29.74 "Hg10 mi
9:00 AM37 °FClear.13 mph93%29.77 "Hg6 mi
8:30 AM36 °FClear.9 mph93%29.77 "Hg4 mi
8:00 AM34 °FClear.9 mph100%29.77 "Hg4 mi
7:30 AM34 °FClear.7 mph100%29.80 "Hg3 mi
7:00 AM32 °FIce fog.7 mph100%29.80 "Hg2 mi
6:30 AM32 °FIce fog.6 mph100%29.80 "Hg2 mi
6:00 AM32 °FIce fog.5 mph100%29.80 "Hg2 mi
5:30 AM32 °FIce fog.3 mph100%29.80 "Hg2 mi
5:00 AM32 °FFog.3 mph100%29.80 "Hg2 mi
4:30 AM32 °FLight fog.2 mph100%29.80 "Hg1 mi
4:00 AM30 °FLight fog.1 mph100%29.83 "Hg1 mi
3:30 AM30 °FIce fog.No wind100%29.83 "Hg1 mi
3:00 AM32 °FIce fog.No wind93%29.83 "Hg1 mi
2:30 AM32 °FLight fog.No wind93%29.83 "Hg1 mi
2:00 AM34 °FLight fog.No wind93%29.86 "Hg2 mi
1:30 AM34 °FLight fog.2 mph100%29.86 "Hg4 mi
1:00 AM34 °FClear.1 mph100%29.86 "Hg4 mi
12:30 AM34 °FLight fog.No wind100%29.86 "Hg3 mi
12:00 AM34 °FLight fog.No wind93%29.86 "Hg2 mi
Weather by CustomWeather, © 2015

See weather overviewHow to use our weather pages